CW7443 Weather Reports


Display with metric or nautical units.
time (UTC)temp
F
wind
direction
speed
MPH
gust
MPH
rain 1hr
in
rain 24hr
in
rain mn
in
humidity
%
barometer
mb
20260502182321 48 34 1.0 6.0 0.00 0.00 0.00 60 1016.7
20260502181827 47 28 0.0 6.0 0.00 0.00 0.00 59 1016.7
20260502181332 47 94 1.0 6.0 0.00 0.00 0.00 58 1016.7
20260502180838 47 44 1.0 6.0 0.00 0.00 0.00 57 1016.7
20260502180326 46 212 1.0 6.0 0.00 0.00 0.00 61 1016.7
20260502170318 46 169 1.0 5.0 0.00 0.00 0.00 62 1016.8
20260502164318 45 37 0.0 4.0 0.00 0.00 0.00 64 1017.1
20260502163824 45 34 1.0 4.0 0.00 0.00 0.00 62 1017.1
20260502163332 45 355 1.0 5.0 0.00 0.00 0.00 65 1017.1
20260502162835 45 71 0.0 5.0 0.00 0.00 0.00 64 1017.1
20260502162321 46 63 0.0 6.0 0.00 0.00 0.00 63 1017.1
20260502161826 46 63 0.0 6.0 0.00 0.00 0.00 62 1017.1
20260502161330 46 198 1.0 4.0 0.00 0.00 0.00 60 1017.1
20260502160819 46 55 0.0 5.0 0.00 0.00 0.00 63 1017.1
20260502160327 46 29 1.0 5.0 0.00 0.00 0.00 63 1017.1
20260502152341 45 287 0.0 6.0 0.00 0.00 0.00 69 1017.1
20260502151830 44 111 1.0 6.0 0.00 0.00 0.00 66 1017.1
20260502151331 45 188 2.0 6.0 0.00 0.00 0.00 63 1016.9
20260502150837 45 66 0.0 8.0 0.00 0.00 0.00 69 1016.9
20260502150323 44 188 1.0 8.0 0.00 0.00 0.00 65 1016.9
20260502130325 38 177 0.0 3.0 0.00 0.00 0.00 79 1016.7
20260502123317 37 33 1.0 4.0 0.00 0.00 0.00 82 1016.7
20260502122818 37 38 0.0 4.0 0.00 0.00 0.00 83 1016.3
20260502122323 36 38 1.0 4.0 0.00 0.00 0.00 84 1016.3
20260502121848 36 36 0.0 2.0 0.00 0.00 0.00 85 1016.3
20260502121330 36 36 0.0 6.0 0.00 0.00 0.00 85 1016.2
20260502120820 36 32 1.0 6.0 0.00 0.00 0.00 85 1016.2
20260502120326 36 34 0.0 1.0 0.00 0.00 0.00 87 1016.2
20260502115847 36 34 0.0 3.0 0.00 0.00 0.00 88 1016.2
20260502115331 35 33 0.0 3.0 0.00 0.00 0.00 88 1016.2
20260502114836 35 63 0.0 0.0 0.00 0.00 0.00 88 1016.2
20260502114322 35 63 0.0 2.0 0.00 0.00 0.00 89 1016.2
20260502113827 35 63 0.0 2.0 0.00 0.00 0.00 89 1016.2
20260502113319 35 24 0.0 0.0 0.00 0.00 0.00 90 1016.2
20260502112819 34 24 0.0 0.0 0.00 0.00 0.00 90 1016.4
20260502112327 34 24 0.0 0.0 0.00 0.00 0.00 90 1016.4
20260502111816 34 24 0.0 0.0 0.00 0.00 0.00 90 1016.4
20260502111341 34 24 0.0 0.0 0.00 0.00 0.00 91 1016.2
20260502110847 34 24 0.0 0.0 0.00 0.00 0.00 91 1016.2
20260502110350 34 24 0.0 0.0 0.00 0.00 0.00 92 1016.2
20260502105837 34 24 0.0 0.0 0.00 0.00 0.00 92 1016.2
20260502105341 34 24 0.0 0.0 0.00 0.00 0.00 92 1016.2
20260502104825 34 24 0.0 0.0 0.00 0.00 0.00 93 1016.2
20260502104350 34 24 0.0 0.0 0.00 0.00 0.00 93 1016.2
20260502103833 34 24 0.0 0.0 0.00 0.00 0.00 93 1016.2
20260502103317 34 24 0.0 0.0 0.00 0.00 0.00 93 1016.2
20260502102820 34 24 0.0 0.0 0.00 0.00 0.00 94 1016.2
20260502102325 34 24 0.0 0.0 0.00 0.00 0.00 94 1016.2
20260502101830 34 24 0.0 0.0 0.00 0.00 0.00 94 1016.2
20260502101335 34 24 0.0 0.0 0.00 0.00 0.00 94 1016.2
20260502100821 34 24 0.0 0.0 0.00 0.00 0.00 95 1016.2
20260502100347 34 24 0.0 0.0 0.00 0.00 0.00 95 1016.2
20260502091323 35 24 0.0 0.0 0.00 0.00 0.00 96 1016.2
20260502090829 35 24 0.0 0.0 0.00 0.00 0.00 96 1016.2
20260502090325 35 24 0.0 0.0 0.00 0.00 0.00 96 1016.2
20260502071333 37 24 0.0 0.0 0.00 0.00 0.00 99 1016.1
20260502070821 38 24 0.0 0.0 0.00 0.00 0.00 99 1016.1
20260502070330 38 24 0.0 0.0 0.00 0.00 0.00 99 1016.1
20260502065815 38 24 0.0 0.0 0.00 0.00 0.00 99 1016.2
20260502065323 38 24 0.0 0.0 0.00 0.00 0.00 99 1016.2
20260502064849 38 24 0.0 0.0 0.00 0.00 0.00 99 1016.2
20260502064354 38 24 0.0 0.0 0.00 0.00 0.00 99 1016.2
20260502063840 38 24 0.0 0.0 0.00 0.00 0.00 99 1016.2
20260502063330 38 24 0.0 0.0 0.00 0.00 0.00 98 1016.2
20260502062832 38 24 0.0 0.0 0.00 0.00 0.00 98 1016.2
20260502062315 38 24 0.0 0.0 0.00 0.00 0.00 99 1016.2
20260502061823 39 24 0.0 0.0 0.00 0.00 0.00 99 1016.2
20260502061325 39 24 0.0 0.0 0.00 0.00 0.00 98 1016.3
20260502060831 39 24 0.0 0.0 0.00 0.00 0.00 98 1016.3
20260502060325 39 23 0.0 0.0 0.00 0.00 0.00 98 1016.3
20260502055828 39 24 0.0 0.0 0.00 0.00 0.00 98 1016.5
20260502055333 39 23 0.0 0.0 0.00 0.00 0.00 98 1016.5
20260502054819 40 24 0.0 0.0 0.00 0.00 0.00 98 1016.5
20260502054322 40 24 0.0 0.0 0.00 0.00 0.00 98 1016.6
20260502053848 40 24 0.0 0.0 0.00 0.00 0.00 98 1016.6
20260502053335 40 24 0.0 0.0 0.00 0.00 0.00 98 1016.6
20260502052838 39 23 0.0 0.0 0.00 0.00 0.00 98 1016.5
20260502052323 39 23 0.0 0.0 0.00 0.00 0.00 98 1016.5
20260502051828 39 24 0.0 0.0 0.00 0.00 0.00 98 1016.5
20260502051329 39 24 0.0 0.0 0.00 0.00 0.00 97 1016.6
20260502050834 39 24 0.0 0.0 0.00 0.00 0.00 97 1016.6
20260502050339 39 23 0.0 0.0 0.00 0.00 0.00 97 1016.6
20260502045821 39 24 0.0 0.0 0.00 0.00 0.00 97 1016.4
20260502045332 39 24 0.0 0.0 0.00 0.00 0.00 97 1016.4
20260502044817 39 24 0.0 0.0 0.00 0.00 0.00 97 1016.4
20260502044339 39 23 0.0 0.0 0.00 0.00 0.00 97 1016.5
20260502043824 39 24 0.0 0.0 0.00 0.00 0.00 97 1016.5
20260502043353 39 24 0.0 0.0 0.00 0.00 0.00 96 1016.5
20260502042854 39 24 0.0 0.0 0.00 0.00 0.00 96 1016.5
20260502042319 39 24 0.0 0.0 0.00 0.00 0.00 96 1016.5
20260502041824 39 24 0.0 0.0 0.00 0.00 0.00 96 1016.5
20260502041325 39 24 0.0 0.0 0.00 0.00 0.00 96 1016.5
20260502040833 40 24 0.0 0.0 0.00 0.00 0.00 95 1016.5
20260502040319 40 24 0.0 0.0 0.00 0.00 0.00 95 1016.5
20260502035820 40 24 0.0 0.0 0.00 0.00 0.00 94 1016.5
20260502035325 40 24 0.0 0.0 0.00 0.00 0.00 93 1016.5
20260502034815 40 24 0.0 0.0 0.00 0.00 0.00 92 1016.5
20260502034322 40 24 0.0 0.0 0.00 0.00 0.00 92 1016.6
20260502033826 41 24 0.0 0.0 0.00 0.00 0.00 92 1016.6
20260502033331 41 23 0.0 0.0 0.00 0.00 0.00 92 1016.6
20260502032833 41 24 0.0 0.0 0.00 0.00 0.00 91 1016.7
20260502032337 41 24 0.0 0.0 0.00 0.00 0.00 91 1016.7
20260502031820 42 23 0.0 0.0 0.00 0.00 0.00 91 1016.7
20260502031343 42 23 0.0 0.0 0.00 0.00 0.00 91 1016.7
20260502030830 42 24 0.0 0.0 0.00 0.00 0.00 91 1016.7
20260502030334 42 24 0.0 0.0 0.00 0.00 0.00 92 1016.7
20260502025820 42 24 0.0 0.0 0.00 0.00 0.00 92 1016.7
20260502025329 42 24 0.0 0.0 0.00 0.00 0.00 92 1016.7
20260502024818 42 23 0.0 0.0 0.00 0.00 0.00 92 1016.7
20260502024321 42 24 0.0 0.0 0.00 0.00 0.00 92 1016.5
20260502023847 42 23 0.0 0.0 0.00 0.00 0.00 91 1016.5
20260502023335 42 24 0.0 0.0 0.00 0.00 0.00 91 1016.5
20260502022840 43 23 0.0 0.0 0.00 0.00 0.00 91 1016.2
20260502022324 43 24 0.0 0.0 0.00 0.00 0.00 90 1016.2
20260502021835 43 24 0.0 0.0 0.00 0.00 0.00 89 1016.2
20260502021338 43 24 0.0 0.0 0.00 0.00 0.00 89 1016.2
20260502020822 43 24 0.0 0.0 0.00 0.00 0.00 89 1016.2
20260502020348 43 23 0.0 0.0 0.00 0.00 0.00 88 1016.2
20260502015853 43 24 0.0 0.0 0.00 0.00 0.00 88 1016.0
20260502015337 44 24 0.0 0.0 0.00 0.00 0.00 87 1016.0
20260502014820 44 24 0.0 0.0 0.00 0.00 0.00 86 1016.0
20260502014326 44 23 0.0 0.0 0.00 0.00 0.00 85 1015.8
20260502013832 44 23 0.0 0.0 0.00 0.00 0.00 85 1015.8
20260502013336 44 23 0.0 0.0 0.00 0.00 0.00 84 1015.8
20260502012821 44 24 0.0 0.0 0.00 0.00 0.00 83 1015.5
20260502012326 44 24 0.0 0.0 0.00 0.00 0.00 83 1015.5
20260502011830 44 24 0.0 3.0 0.00 0.00 0.00 82 1015.5
20260502011333 44 24 0.0 4.0 0.00 0.00 0.00 81 1015.2
20260502010816 44 38 0.0 4.0 0.00 0.00 0.00 81 1015.2
20260502010344 44 45 1.0 3.0 0.00 0.00 0.00 82 1015.2
20260502005828 44 46 0.0 0.0 0.00 0.00 0.00 84 1015.3
20260502005353 44 46 0.0 0.0 0.00 0.00 0.00 83 1015.3
20260502004821 45 46 0.0 0.0 0.00 0.00 0.00 83 1015.3
20260502004322 45 46 0.0 0.0 0.00 0.00 0.00 84 1015.2
20260502003831 45 46 0.0 0.0 0.00 0.00 0.00 84 1015.2
20260502003337 45 46 0.0 0.0 0.00 0.00 0.00 84 1015.2
20260502002838 45 46 0.0 0.0 0.00 0.00 0.00 83 1015.1
20260502002323 45 46 0.0 0.0 0.00 0.00 0.00 83 1015.1
20260502001829 45 46 0.0 0.0 0.00 0.00 0.00 82 1015.1
20260502001331 45 46 0.0 0.0 0.00 0.00 0.00 82 1014.9
20260502000836 46 46 0.0 0.0 0.00 0.00 0.00 81 1014.9
20260502000340 46 46 0.0 0.0 0.00 0.00 0.00 80 1014.9
20260501235821 46 46 0.0 0.0 0.00 0.00 0.00 80 1014.5
20260501235329 46 46 0.0 3.0 0.00 0.00 0.00 79 1014.5
20260501234835 46 46 0.0 3.0 0.00 0.00 0.00 79 1014.5
20260501234338 46 47 0.0 0.0 0.00 0.00 0.00 79 1014.4
20260501233843 46 51 0.0 0.0 0.00 0.00 0.00 78 1014.4
20260501233332 46 51 0.0 0.0 0.00 0.00 0.00 78 1014.4
20260501232833 46 47 0.0 0.0 0.00 0.00 0.00 77 1014.1
20260501232319 46 47 0.0 3.0 0.00 0.00 0.00 79 1014.1
20260501231845 46 47 1.0 3.0 0.00 0.00 0.00 78 1014.1
20260501231327 46 35 0.0 5.0 0.00 0.00 0.00 79 1014.1
20260501230833 46 34 0.0 5.0 0.00 0.00 0.00 76 1014.1
20260501230316 47 34 1.0 5.0 0.00 0.00 0.00 76 1014.1
20260501225818 47 107 0.0 3.0 0.00 0.00 0.00 76 1014.2
20260501225327 47 233 0.0 2.0 0.00 0.00 0.00 76 1014.2
20260501224831 48 317 0.0 2.0 0.00 0.00 0.00 78 1014.2
20260501224337 47 317 0.0 5.0 0.00 0.00 0.00 79 1014.1
20260501223826 47 296 0.0 5.0 0.00 0.00 0.00 78 1014.1
20260501223316 47 78 0.0 4.0 0.00 0.00 0.00 77 1014.1
20260501222819 47 53 0.0 4.0 0.00 0.00 0.00 79 1014.3
20260501222326 47 11 0.0 6.0 0.00 0.00 0.00 79 1014.3
20260501221832 47 17 0.0 6.0 0.00 0.00 0.00 81 1014.3
20260501221334 46 58 2.0 6.0 0.00 0.00 0.00 82 1014.5
20260501220818 46 71 1.0 6.0 0.00 0.00 0.00 81 1014.5
20260501220325 46 175 0.0 6.0 0.00 0.00 0.00 82 1014.5
20260501215829 46 262 1.0 6.0 0.00 0.00 0.00 83 1014.3
20260501215318 46 79 0.0 6.0 0.00 0.00 0.00 84 1014.3
20260501214835 46 20 1.0 6.0 0.00 0.00 0.00 83 1014.3
20260501214325 46 105 0.0 7.0 0.00 0.00 0.00 83 1014.0
20260501213830 46 62 0.0 7.0 0.00 0.00 0.00 86 1014.0
20260501213356 45 63 2.0 11.0 0.00 0.00 0.00 85 1014.0
20260501212836 45 34 3.0 11.0 0.00 0.00 0.00 85 1013.6
20260501212322 45 116 0.0 7.0 0.00 0.00 0.00 86 1013.6
20260501211829 46 85 1.0 7.0 0.00 0.00 0.00 85 1013.6
20260501211335 46 76 0.0 3.0 0.00 0.00 0.00 86 1013.4
20260501210818 46 33 0.0 7.0 0.00 0.00 0.00 87 1013.4
20260501210326 45 13 3.0 7.0 0.00 0.00 0.00 87 1013.4
20260501205850 45 83 1.0 7.0 0.00 0.00 0.00 87 1013.3
20260501205357 45 55 0.0 6.0 0.00 0.00 0.00 88 1013.3
20260501204840 45 36 2.0 6.0 0.00 0.00 0.00 86 1013.3
20260501204320 46 292 0.0 8.0 0.00 0.00 0.00 87 1013.2
20260501203824 46 41 1.0 8.0 0.00 0.00 0.00 85 1013.2
20260501203316 46 96 1.0 5.0 0.00 0.00 0.00 86 1013.2
20260501202839 46 306 1.0 7.0 0.00 0.00 0.00 85 1013.1
20260501202326 46 66 1.0 7.0 0.00 0.00 0.00 86 1013.1
20260501201831 46 212 1.0 5.0 0.00 0.00 0.00 87 1013.1
20260501201333 46 275 0.0 8.0 0.00 0.00 0.00 88 1013.0
20260501200820 46 21 2.0 8.0 0.00 0.00 0.00 85 1013.0
20260501200346 46 78 2.0 12.0 0.00 0.00 0.00 86 1013.0
20260501195851 47 77 1.0 12.0 0.00 0.00 0.00 85 1012.8
20260501195336 47 203 1.0 10.0 0.00 0.00 0.00 83 1012.8
20260501194840 48 45 0.0 7.0 0.00 0.00 0.00 83 1012.8
20260501194321 48 251 2.0 9.0 0.00 0.00 0.00 84 1012.5
20260501193829 48 73 1.0 9.0 0.00 0.00 0.00 84 1012.5
20260501193354 49 270 2.0 9.0 0.00 0.00 0.00 81 1012.5
20260501192836 50 46 2.0 9.0 0.00 0.00 0.00 79 1012.2
20260501192321 51 257 2.0 6.0 0.00 0.00 0.00 84 1012.2
20260501191816 51 236 2.0 8.0 0.00 0.00 0.00 86 1012.2
20260501191337 51 29 1.0 8.0 0.00 0.00 0.00 83 1011.8
20260501190823 52 262 0.0 4.0 0.00 0.00 0.00 86 1011.8
20260501190349 52 13 0.0 5.0 0.00 0.00 0.00 85 1011.8
20260501185830 51 116 2.0 9.0 0.00 0.00 0.00 90 1011.3
20260501185336 50 256 1.0 10.0 0.00 0.00 0.00 89 1011.3
20260501184819 50 236 1.0 10.0 0.00 0.00 0.00 89 1011.3
20260501184321 50 126 1.0 8.0 0.00 0.00 0.00 90 1011.4
20260501183827 50 155 0.0 5.0 0.00 0.00 0.00 95 1011.4
20260501183334 49 273 1.0 5.0 0.00 0.00 0.00 98 1011.4
20260501182838 48 205 0.0 4.0 0.00 0.00 0.00 97 1011.6